This demonstration page uses our WeatherBlox Daily Observations layout. Learn more.

Left ArrowRight Arrow

39.29038, -76.61219

Hourly Observations for August 27, 2020

Temp ( °F °C ) Dew Point ( °F °C ) Humidity (%) Winds ( mph kmh ) Pressure ( in mb ) Visibility ( mi km ) Precip ( " mm )
12:54 am 00:54 Mostly Clear 77 25 65 18.3 66 66 SW 7 11 29.92 1013 10 16 0.00 0.00
1:54 am 01:54 Partly Cloudy 76 24.4 66 18.9 72 72 WSW 5 7 29.91 1013 10 16 0.00 0.00
2:54 am 02:54 Partly Cloudy 75 23.9 66 18.9 74 74 WSW 3 6 29.89 1012 10 16 0.00 0.00
3:54 am 03:54 Partly Cloudy 75 23.9 66 18.9 74 74 SW 3 6 29.88 1012 10 16 0.00 0.00
4:54 am 04:54 Mostly Clear 74 23.3 67 19.4 79 79 WSW 5 7 29.88 1012 10 16 0.00 0.00
5:54 am 05:54 Mostly Clear 75 23.9 67 19.4 76 76 VRB 5 7 29.90 1013 10 16 0.00 0.00
6:54 am 06:54 Mostly Sunny 75 23.9 68 20 79 79 WSW 6 9 29.90 1013 10 16 0.00 0.00
7:54 am 07:54 Mostly Sunny 76 24.4 69 20.6 79 79 SW 6 9 29.91 1013 10 16 0.00 0.00
8:54 am 08:54 Partly Cloudy 82 27.8 69 20.6 65 65 VRB 6 9 29.90 1013 10 16 0.00 0.00
9:54 am 09:54 Partly Cloudy 85 29.4 71 21.7 63 63 WSW 10 17 29.89 1012 10 16 0.00 0.00
10:54 am 10:54 Mostly Sunny 87 30.6 70 21.1 57 57 WSW 13 20 29.87 1012 10 16 0.00 0.00
11:54 am 11:54 Partly Cloudy 89 31.7 71 21.7 55 55 WSW 16 26 29.85 1011 10 16 0.00 0.00
12:54 pm 12:54 Mostly Cloudy 91 32.8 72 22.2 54 54 W 15 24 29.84 1011 10 16 0.00 0.00
1:54 pm 13:54 Partly Cloudy 92 33.3 71 21.7 51 51 SW 18 30 29.82 1010 10 16 0.00 0.00
2:54 pm 14:54 Partly Cloudy 93 33.9 72 22.2 50 50 WSW 18 30 29.79 1009 10 16 0.00 0.00
3:54 pm 15:54 Mostly Cloudy 92 33.3 71 21.7 51 51 WSW 17 28 29.77 1008 10 16 0.00 0.00
4:54 pm 16:54 Mostly Cloudy 90 32.2 72 22.2 56 56 SW 10 17 29.75 1008 10 16 0.00 0.00
5:54 pm 17:54 Mostly Cloudy 89 31.7 73 22.8 59 59 WSW 8 13 29.75 1007 10 16 0.00 0.00
6:54 pm 18:54 Partly Cloudy 87 30.6 74 23.3 65 65 W 13 20 29.76 1008 10 16 0.00 0.00
7:54 pm 19:54 Partly Cloudy 86 30 69 20.6 57 57 W 14 22 29.78 1009 10 16 0.00 0.00
8:54 pm 20:54 Mostly Cloudy 85 29.4 68 20 57 57 W 10 17 29.82 1010 10 16 0.00 0.00
9:54 pm 21:54 Cloudy 85 29.4 68 20 57 57 WSW 15 24 29.81 1010 10 16 0.00 0.00
10:54 pm 22:54 Cloudy 83 28.3 66 18.9 57 57 W 12 19 29.82 1010 10 16 0.00 0.00
11:54 pm 23:54 Cloudy 82 27.8 62 16.7 51 51 WNW 13 20 29.84 1010 10 16 0.00 0.00

Powered by AerisWeather